WB8ZGM-13 Weather Reports


time (UTC)temp
F
wind
direction
speed
knots
gust
knots
rain 1hr
in
rain 24hr
in
rain mn
in
humidity
%
barometer
mb
20260504045745 51 146 0.9 1.7 0.00 0.00 0.00 81 997.7
20260504044215 46 239 0.0 0.0 0.00 0.00 0.00 95 997.8
20260504042645 47 202 0.0 0.0 0.00 0.00 0.00 90 998.1
20260504041115 47 202 0.0 0.0 0.00 0.00 0.00 90 998.3
20260504035545 47 202 0.0 0.0 0.00 0.00 0.00 90 998.3
20260504034015 48 225 0.0 0.0 0.00 0.00 0.00 89 998.2
20260504032445 49 176 0.0 0.0 0.00 0.00 0.00 84 998.4
20260504030915 49 198 0.0 0.0 0.00 0.00 0.00 82 998.4
20260504025345 50 180 0.0 0.0 0.00 0.00 0.00 80 998.4
20260504023815 51 158 0.0 0.0 0.00 0.00 0.00 77 998.4
20260504022315 52 170 0.0 0.0 0.00 0.00 0.00 76 998.2
20260504020745 53 202 0.0 0.0 0.00 0.00 0.00 72 997.9
20260504015215 54 202 0.0 0.0 0.00 0.00 0.00 71 997.5
20260504013645 56 158 0.0 0.0 0.00 0.00 0.00 67 997.5
20260504012115 57 158 0.0 0.0 0.00 0.00 0.00 64 997.6
20260504010545 60 180 0.0 0.0 0.00 0.00 0.00 59 997.8
20260504005015 62 158 0.0 0.0 0.00 0.00 0.00 54 997.5
20260504003445 64 160 0.0 0.0 0.00 0.00 0.00 50 997.5
20260504001915 67 177 0.0 0.0 0.00 0.00 0.00 46 997.6
20260504000346 69 206 0.0 0.0 0.00 0.00 0.00 42 998.0
20260503234845 71 201 0.0 0.0 0.00 0.00 0.00 40 998.1
20260503233315 73 276 0.0 0.0 0.00 0.00 0.00 39 998.1
20260503231815 73 55 0.9 0.0 0.00 0.00 0.00 38 998.0
20260503230244 73 214 0.0 0.0 0.00 0.00 0.00 38 998.3
20260503224744 74 180 0.0 0.0 0.00 0.00 0.00 37 998.5
20260503223244 72 180 4.3 4.3 0.00 0.00 0.00 39 998.7
20260503221714 72 236 0.9 0.9 0.00 0.00 0.00 38 998.9
20260503220144 71 213 0.9 0.0 0.00 0.00 0.00 37 999.0
20260503214614 71 195 2.6 4.3 0.00 0.00 0.00 39 999.1
20260503213114 71 166 0.0 0.0 0.00 0.00 0.00 38 999.4
20260503211544 71 241 4.3 5.2 0.00 0.00 0.00 37 999.6
20260503210014 71 287 0.0 0.0 0.00 0.00 0.00 37 999.8
20260503204444 72 273 0.0 4.3 0.00 0.00 0.00 39 1000.0
20260503202944 71 90 2.6 5.2 0.00 0.00 0.00 36 1000.2
20260503201444 73 292 4.3 6.1 0.00 0.00 0.00 35 1000.8
20260503195944 71 222 0.9 0.0 0.00 0.00 0.00 37 1000.9
20260503194414 72 196 0.0 0.0 0.00 0.00 0.00 37 1001.1
20260503192914 72 293 1.7 6.1 0.00 0.00 0.00 39 1001.2
20260503191344 71 171 1.7 2.6 0.00 0.00 0.00 38 1001.6
20260503185814 70 100 1.7 2.6 0.00 0.00 0.00 39 1001.8
20260503184244 70 257 2.6 4.3 0.00 0.00 0.00 37 1002.0
20260503182714 70 269 0.0 0.0 0.00 0.00 0.00 37 1002.2
20260503181214 69 251 0.0 0.0 0.00 0.00 0.00 39 1002.2
20260503175714 68 153 0.9 1.7 0.00 0.00 0.00 40 1002.5
20260503174213 69 179 0.0 7.0 0.00 0.00 0.00 40 1002.5
20260503172643 68 273 0.9 0.9 0.00 0.00 0.00 42 1002.9
20260503171113 68 90 0.9 1.7 0.00 0.00 0.00 42 1003.1
20260503150813 63 226 0.9 4.3 0.00 0.00 0.00 50 1004.1
20260503130713 61 157 0.0 0.0 0.00 0.00 0.00 71 1004.0
20260503110612 35 180 0.0 0.0 0.00 0.00 0.00 99 1002.8
20260503090412 37 202 0.0 0.0 0.00 0.00 0.00 99 1002.4
20260503080311 38 202 0.0 0.0 0.00 0.00 0.00 99 1002.2
20260503071641 39 180 0.0 0.0 0.00 0.00 0.00 99 1002.2
20260503070111 39 158 0.0 0.0 0.00 0.00 0.00 99 1002.0